Miscellaneous Local Product
Issued by NWS North Platte, NE

Home | Current Version | Previous Version | Text Only | Print | Product List | Glossary On
Versions: 1 2 3 4 5 6 7 8 9 10 11 12 13 14 15 16 17 18 19 20 21 22 23 24 25 26 27 28 29 30 31 32 33 34 35 36 37 38 39 40 41 42 43 44 45 46 47 48 49 50
000
AXUS43 KLBF 220410
MISLBF


WESTERN AND NORTH CENTRAL NEBRASKA HOURLY WEATHER ROUNDUP
NATIONAL WEATHER SERVICE NORTH PLATTE NE
1100 PM CDT TUE OCT 21 2014

***STATIONS NOT REPORTING VARIABLES SUCH AS SKY/WEATHER OR
PRESSURE ARE PROVIDED BY THE NEBRASKA DEPARTMENT OF
ROADS...RAWS...AND APRS NETWORKS...AND ARE NOT UNDER
NATIONAL WEATHER SERVICE QUALITY CONTROL***

...OBSERVATIONS IN AND NEAR THE EASTERN PANHANDLE OF NEBRASKA...

CITY           SKY/WX    TMP DP  RH WIND       PRES   REMARKS
PINE RIDGE     MOCLDY    64  46  52 S6        29.82S
CHADRON        MOCLDY    63  44  50 S7        29.81S
ALLIANCE       PTCLDY    50  43  77 SE7       29.88R
SIDNEY         PTCLDY    57  41  55 S9        29.91R
WHITECLAY        N/A     60  47  60 E7          N/A
RUSHVILLE        N/A     58  47  68 S14         N/A
CRESCENT LAKE    N/A     57  45  65 SW6         N/A
LISCO            N/A     64  37  37 SW3         N/A
BIG SPRINGS      N/A     63  51  63 S8          N/A
LEWELLEN         N/A     69  50  50 S15         N/A
$$

...OBSERVATIONS IN NORTH CENTRAL NEBRASKA...

CITY           SKY/WX    TMP DP  RH WIND       PRES   REMARKS
VALENTINE      CLEAR     66  55  67 S21G28    29.85S
THEDFORD       PTCLDY    66  57  73 S15       29.91R
AINSWORTH      PTCLDY    62  52  69 S15G23    29.89S
O`NEILL        CLEAR     62  43  50 SE15      29.95S
ORD            CLEAR     58  50  75 SE6       29.95R
BROKEN BOW     PTCLDY    61  53  75 SE13      29.94S
BROWNLEE         N/A     64  56  78 SE15        N/A
SPRINGVIEW       N/A     65  53  65 SE6G15      N/A
BREWSTER         N/A     67  57  71 S18         N/A
ROSE             N/A     66  57  72 E18         N/A
NEWPORT          N/A     64  53  68 SE13        N/A
SARGENT          N/A     60  52  76 CALM        N/A
COMSTOCK         N/A     66  56  71 S13         N/A
CHAMBERS         N/A     60  43  53 S6          N/A
$$

...OBSERVATIONS IN SOUTHWEST NEBRASKA AND FAR NORTHEAST COLORADO...

CITY           SKY/WX    TMP DP  RH WIND       PRES   REMARKS
WRAY           FAIR      64  44  47 S16G23    29.91S
HOLYOKE        FAIR      61  45  55 S9        29.91S
IMPERIAL       PTCLDY    61  47  59 S12       29.92R
OGALLALA       PTCLDY    64  52  64 S13       29.89S
NORTH PLATTE   MOCLDY    68  53  58 S16G24    29.91S
MCCOOK         PTCLDY    65  52  62 S10       29.94R
LEXINGTON      PTCLDY    65  58  79 SE9       29.95R
PAXTON           N/A     65  54  66 SE12        N/A
SUTHERLAND       N/A     65  55  71 S10         N/A
BRADY            N/A     63  55  76 CALM        N/A
GOTHENBURG       N/A     65  54  68 SE3         N/A
CALLAWAY         N/A     63  58  83 S17         N/A
$$

...SOME WEATHER OBSERVATIONS FROM AROUND THE REGION...

CITY           SKY/WX    TMP DP  RH WIND       PRES   REMARKS
DENVER         CLOUDY    59  39  47 W15       29.97R
LARAMIE        CLOUDY    48  40  73 SW16      30.07R
CHEYENNE       LGT RAIN  55  41  59 NW13G21   29.99S
SCOTTSBLUFF    CLOUDY    59  47  64 N3        29.88S
RAPID CITY     MOCLDY    60  43  53 S7        29.77R
PIERRE         CLEAR     65  43  44 SE18      29.77F
WINNER         FAIR      67  51  56 S22G31    29.83S
SIOUX FALLS    CLEAR     58  42  55 SE17      30.02S
OMAHA          CLEAR     57  42  57 SE13      30.08R
GRAND ISLAND   CLEAR     62  47  57 SE13      29.98S
KANSAS CITY    CLEAR     59  45  59 E13       30.11S
WICHITA        CLEAR     67  59  75 SE12      30.05R
HAYS           CLEAR     64  54  68 S13       29.98S
LIBERAL        CLEAR     63  48  59 S13       30.04S
GOODLAND       CLEAR     59  46  62 S13       29.96S
$$



USA.gov is the U.S. government's official web portal to all federal, state and local government web resources and services.